GFSGBSN_700_spd_141.txt.gz
Wind_Speed
38 37 35 38 38 38 38 37 37 37 36 36 35 34 34 33 32 33 32 31 31 31 30 29 27 27 23 22 19 24 24 23 20 13 11 10 6 6 7 7 6 7 8 9 10 11 9
50 47 44 40 41 41 39 40 39 38 38 37 36 36 35 34 34 35 34 33 33 32 32 30 28 27 28 26 25 24 20 19 18 13 11 10 9 10 7 8 6 12 9 8 9 10 10
51 54 51 51 44 37 40 34 40 32 39 37 37 37 36 35 35 36 35 34 33 34 33 30 30 29 29 26 24 24 21 17 15 14 14 12 10 9 9 7 12 12 8 9 10 10 9
52 47 55 55 54 55 50 52 47 44 42 38 38 38 37 36 36 36 36 34 34 34 33 32 31 29 32 28 22 20 19 17 15 15 15 14 12 11 9 11 11 8 11 11 14 8 11
52 48 46 42 49 55 54 53 50 51 47 46 44 43 40 39 37 36 36 36 36 34 33 32 32 30 29 30 23 21 17 15 18 16 16 15 13 11 12 9 9 12 14 11 8 8 9
58 62 57 54 48 46 46 43 47 47 50 50 52 50 46 43 43 39 39 39 38 37 39 37 33 29 23 13 14 13 14 14 19 19 16 15 11 10 9 12 16 9 10 12 13 9 8
53 52 52 54 57 56 51 46 39 48 48 48 45 47 45 42 38 40 37 37 33 34 33 34 9 16 21 20 19 14 14 12 11 15 12 12 12 15 12 10 12 11 13 15 14 11 13
49 51 50 51 51 47 49 51 55 53 50 49 41 38 38 38 33 31 29 36 28 31 30 33 33 33 27 26 19 14 16 12 12 15 13 17 18 15 18 14 14 14 15 17 16 17 15
48 48 48 46 47 45 42 42 42 49 53 53 49 43 39 44 31 35 36 32 27 26 31 39 38 36 31 34 34 27 23 20 17 17 19 20 8 19 19 10 11 15 17 15 15 14 18
46 44 47 47 45 45 42 41 38 40 41 34 40 39 42 36 30 28 27 22 19 19 15 21 23 30 33 26 36 38 32 25 21 25 21 24 23 21 16 18 16 17 16 15 14 14 15
45 45 44 44 43 43 41 38 37 36 36 33 33 31 28 22 29 27 20 18 14 11 5 2 19 25 24 30 22 22 31 32 30 25 22 24 16 18 20 20 15 15 11 11 12 15 18
45 45 44 43 38 38 40 38 36 36 36 35 31 31 28 34 31 30 23 19 17 6 10 8 11 15 19 24 17 18 24 27 24 24 24 27 13 16 14 14 14 11 9 9 11 13 17
48 46 42 42 38 34 33 35 36 37 36 35 34 33 33 28 27 26 20 19 15 17 7 14 10 12 15 16 20 15 20 30 25 24 33 30 28 20 15 13 12 15 11 10 13 10 11
50 49 46 44 44 39 37 34 31 34 37 34 34 33 33 31 24 21 26 29 16 19 29 8 7 12 17 16 19 18 17 24 28 23 16 29 27 31 24 25 15 20 18 12 10 10 10
53 52 50 47 46 44 41 38 35 32 32 34 34 34 35 34 30 29 34 34 32 33 17 32 14 13 18 17 12 18 20 22 21 25 20 16 23 12 13 19 21 16 19 19 20 22 17
46 51 54 53 48 46 45 40 39 36 32 31 34 34 38 37 34 35 41 39 35 24 22 26 31 20 21 21 18 18 16 16 21 22 19 12 8 13 15 16 17 18 9 10 13 5 11
41 44 51 56 55 49 45 47 38 39 37 33 30 29 40 38 35 41 47 48 38 24 16 16 25 27 23 22 24 22 10 9 20 18 23 10 13 10 13 18 18 20 16 11 11 19 11
42 44 43 50 58 55 48 45 48 38 40 37 34 34 37 42 46 47 44 51 37 31 19 18 22 19 23 23 21 24 19 14 18 17 25 18 13 13 20 12 18 20 18 18 15 12 19
36 38 39 41 49 59 57 49 45 46 41 41 42 36 33 36 48 43 50 53 35 30 32 23 20 19 18 18 20 20 19 19 15 18 13 20 12 16 12 10 16 21 21 20 18 15 21
37 36 36 41 44 51 61 55 49 46 43 46 46 40 39 35 49 53 46 42 43 40 27 22 22 21 20 20 19 14 16 20 19 23 20 17 14 18 20 8 4 20 20 20 19 20 22
39 35 36 40 47 47 55 61 52 48 45 44 53 32 44 46 49 55 37 42 39 35 39 26 26 24 26 24 21 16 14 19 23 18 18 17 16 18 23 15 11 14 14 17 21 25 26
40 35 34 35 38 45 50 55 57 53 45 48 50 39 37 34 47 53 40 42 34 40 31 37 37 28 27 26 25 20 19 23 23 21 20 22 14 14 19 16 18 20 22 21 25 29 29
41 36 34 35 36 39 45 58 60 55 50 52 59 41 32 37 30 45 48 53 39 34 37 33 27 29 27 28 27 25 25 27 24 16 15 19 20 19 16 17 15 18 28 30 29 29 27
40 37 34 37 38 41 47 51 59 61 55 55 55 45 37 31 33 35 45 46 40 36 37 38 29 27 23 24 24 23 21 23 23 21 9 14 14 15 11 8 12 24 20 16 19 20 18
38 36 34 38 36 36 36 45 54 60 58 59 51 45 38 32 30 29 30 40 41 32 30 23 26 23 31 26 24 17 20 13 20 25 24 18 18 17 16 17 18 22 18 21 19 21 15
37 35 33 35 34 35 34 41 50 57 56 65 52 49 40 37 22 27 28 32 38 39 30 23 24 25 19 23 26 14 6 7 8 11 19 20 21 21 16 14 14 24 12 12 13 22 11
37 35 33 35 35 32 30 35 50 54 57 55 46 50 39 41 34 20 24 26 27 28 28 32 28 26 29 30 23 19 19 13 14 18 9 18 22 28 26 24 26 19 16 15 11 12 11
35 34 34 35 32 28 24 26 40 47 55 60 39 40 34 38 32 23 21 22 27 26 31 22 25 27 21 19 18 13 17 21 23 22 16 16 14 19 25 25 24 16 19 17 12 14 19
35 33 35 34 30 26 24 28 36 40 41 43 41 35 37 36 26 31 28 31 26 27 24 24 31 16 20 15 22 21 22 17 22 23 25 24 22 18 18 21 19 13 14 13 16 16 18

GFSGBSN_700_spd_144.txt.gz
Wind_Speed
43 37 40 40 38 39 38 38 38 38 38 38 37 36 35 34 34 34 33 32 32 32 31 30 30 30 27 25 25 30 26 22 22 17 13 11 6 9 10 10 11 9 8 9 9 17 11
46 48 41 38 41 41 40 40 39 39 40 40 39 37 37 36 36 36 34 33 33 33 32 31 31 30 31 30 23 29 22 24 19 14 12 10 8 14 13 10 12 6 15 8 8 9 10
48 49 52 51 52 44 40 39 41 41 42 41 40 39 38 37 37 36 35 34 34 34 33 31 32 33 34 30 26 27 23 23 20 14 12 16 15 13 7 7 12 15 13 11 14 13 11
49 54 48 50 50 49 49 50 43 43 44 42 39 41 40 38 36 35 36 36 36 34 33 33 32 34 39 30 30 28 24 21 18 15 15 15 14 16 14 10 14 12 11 13 16 15 16
51 51 49 53 47 52 53 52 48 45 46 43 39 43 38 38 37 37 37 37 36 35 34 34 32 35 38 28 25 24 23 20 16 16 16 14 15 16 11 12 12 14 15 17 11 16 10
56 59 55 53 52 46 44 42 41 51 52 47 49 46 48 47 45 42 40 40 40 39 37 37 35 34 30 26 16 17 15 17 16 16 16 15 13 14 13 15 19 10 20 14 12 16 17
48 52 53 57 59 63 54 51 47 42 39 33 40 42 47 49 47 46 42 43 40 42 46 43 32 28 6 14 25 20 17 15 15 16 17 12 14 19 15 16 20 11 10 10 8 7 10
46 47 49 51 51 51 55 62 57 60 49 38 33 34 34 41 41 41 41 40 32 30 36 42 42 45 33 11 19 12 15 17 18 19 15 15 23 18 15 15 15 12 14 18 18 18 16
44 45 46 45 47 46 46 47 48 48 48 52 57 42 41 37 34 34 32 31 28 26 31 48 44 43 38 35 28 23 18 18 18 18 20 21 11 13 18 15 16 18 18 19 19 16 14
46 46 45 44 43 43 43 44 44 41 39 44 45 41 38 42 45 40 31 31 23 18 19 32 28 44 39 30 36 33 31 24 23 25 20 25 24 21 15 17 18 19 16 19 20 17 21
45 45 45 44 42 40 40 41 40 37 36 38 37 36 36 34 23 37 42 27 14 6 3 2 15 19 15 39 17 18 29 34 33 28 21 29 20 27 28 25 18 21 18 13 14 18 21
41 43 44 45 44 42 38 35 36 37 34 35 35 33 28 27 18 13 17 14 16 4 9 5 18 19 20 25 29 14 20 29 34 33 31 32 20 22 23 18 20 15 13 16 15 18 20
46 44 45 44 43 41 41 36 31 32 33 33 33 32 29 23 19 15 16 19 13 9 5 11 13 14 17 19 29 22 14 25 39 33 38 31 34 23 20 16 15 16 12 7 11 11 11
46 47 45 46 44 42 41 40 34 31 28 31 33 32 30 31 24 24 25 28 11 15 25 2 11 10 16 16 19 23 18 22 30 30 18 32 30 31 26 25 20 21 22 13 7 9 11
45 45 48 49 49 47 42 41 38 35 31 29 30 34 35 32 31 28 33 38 28 23 13 21 9 11 13 16 13 21 23 24 25 34 28 12 29 20 35 31 22 23 26 23 22 22 11
39 41 44 46 48 48 46 43 42 36 35 32 32 28 36 32 37 36 40 42 44 35 21 15 20 19 16 18 19 14 16 14 25 27 30 24 18 10 19 24 21 28 9 14 12 4 7
39 38 37 39 44 47 49 46 44 41 37 36 33 32 34 35 45 45 41 43 44 35 17 24 24 27 29 20 21 23 17 17 15 19 23 26 16 10 15 19 20 24 22 16 14 20 4
39 39 41 40 38 43 49 50 47 49 36 39 43 41 33 37 50 54 45 51 47 36 26 20 17 19 18 26 26 32 29 27 15 21 21 24 11 14 20 10 19 18 22 21 12 9 15
37 35 35 36 40 39 44 52 52 45 46 38 47 44 38 33 52 45 55 54 49 41 35 26 19 20 15 17 22 25 22 21 16 23 19 23 14 13 12 14 14 19 18 23 25 23 23
42 41 40 36 34 38 41 48 55 52 42 43 42 49 39 36 41 53 47 53 51 50 35 29 28 18 21 23 20 18 20 16 18 20 23 20 19 20 17 20 11 15 22 23 25 25 21
47 45 41 39 35 35 39 42 55 57 46 45 46 29 42 45 38 47 49 38 40 34 37 30 25 31 20 20 26 26 21 18 21 23 24 25 20 17 20 13 15 18 20 18 28 26 25
44 41 43 40 37 34 37 44 46 60 53 49 48 48 32 35 37 46 49 49 38 38 40 42 37 23 22 23 20 15 24 17 20 26 25 22 12 18 21 19 13 19 22 22 22 24 26
44 40 39 41 38 35 36 43 47 52 54 49 46 50 24 46 30 39 49 51 47 35 33 34 38 32 28 23 26 24 25 17 14 19 26 21 16 19 19 18 17 14 31 33 33 30 26
42 42 38 39 38 35 36 38 46 49 56 55 48 32 47 28 36 42 42 49 42 36 37 33 33 34 32 33 34 33 28 28 26 30 27 24 21 12 10 11 9 23 18 16 19 21 20
41 41 38 38 38 35 35 37 39 45 51 58 52 37 40 42 30 31 30 34 42 33 31 34 44 36 31 30 25 23 15 15 27 34 21 21 19 12 10 16 18 18 8 15 18 24 19
39 39 37 37 37 34 35 38 41 41 46 55 53 46 35 38 40 27 25 29 36 37 33 36 30 33 25 21 27 11 9 8 9 9 27 23 24 21 11 12 9 18 12 14 12 24 19
37 36 34 36 35 32 35 34 37 37 44 52 53 50 29 47 23 28 34 30 25 29 37 36 30 31 30 29 17 12 11 13 5 9 20 27 27 27 19 13 12 16 12 12 13 11 10
35 33 33 34 32 31 33 33 36 35 42 47 51 53 42 37 43 41 19 20 17 25 29 32 31 36 15 15 14 12 8 12 16 13 16 17 13 17 18 18 17 11 13 22 15 13 13
34 31 32 32 29 30 30 30 28 28 37 42 48 39 47 40 30 35 28 21 17 27 28 28 31 27 22 20 21 17 18 14 20 21 22 22 18 17 13 16 14 8 12 21 21 16 11

GFSGBSN_700_spd_147.txt.gz
Wind_Speed
38 37 37 36 39 36 37 38 38 38 38 38 37 37 36 36 35 35 34 33 32 32 31 31 32 32 30 31 26 28 25 20 19 19 16 14 9 8 10 10 8 15 17 11 19 21 18
53 46 48 45 37 40 42 40 40 38 40 40 39 39 38 38 37 37 36 35 34 33 32 32 34 33 35 35 24 26 23 19 19 19 15 13 14 17 15 17 13 12 17 18 14 15 13
52 51 48 49 46 46 40 40 40 41 41 41 41 40 39 39 39 39 37 36 34 34 32 33 35 37 39 32 27 26 27 22 21 18 15 16 18 19 17 20 15 20 21 19 23 17 14
52 48 47 50 46 49 51 48 50 45 40 45 44 43 41 41 40 39 38 37 36 35 34 34 36 38 46 31 31 28 24 28 20 18 15 21 14 18 20 17 12 14 15 17 18 16 19
46 47 50 42 47 47 42 41 50 50 47 43 38 40 41 42 44 36 42 37 36 35 34 34 34 39 42 27 19 16 18 23 20 18 17 19 18 16 18 17 16 14 16 16 11 19 28
46 48 48 52 51 48 50 48 41 35 47 50 47 46 43 43 37 40 39 37 38 40 39 38 37 38 29 19 20 21 19 13 20 16 18 22 18 18 20 17 18 15 21 20 17 22 24
43 44 46 48 52 53 54 55 49 48 39 35 33 40 47 37 47 46 47 47 46 46 50 46 39 41 26 17 16 21 18 14 14 19 24 18 19 24 20 19 15 15 18 14 10 15 22
41 41 42 44 46 48 50 52 52 54 56 49 42 39 35 37 40 20 26 30 38 42 44 54 52 52 46 31 29 17 17 19 21 25 22 18 26 19 14 14 19 26 18 19 19 6 14
42 41 40 40 42 42 43 44 45 47 47 45 59 51 47 40 33 38 23 20 27 35 43 59 51 52 45 36 40 31 18 17 22 24 22 24 17 14 17 20 20 21 19 20 19 16 14
42 43 43 42 40 39 38 38 40 40 41 36 36 33 43 44 55 43 33 28 30 23 24 40 38 44 43 43 47 40 29 22 24 24 18 25 19 18 10 26 18 19 17 14 16 18 23
38 39 42 43 43 40 38 36 35 35 35 32 33 29 29 29 31 32 29 28 30 39 5 10 8 14 12 31 28 19 35 35 33 30 26 26 18 26 27 27 24 25 24 21 20 17 18
37 36 37 39 40 40 38 36 34 32 31 29 29 28 27 26 22 15 13 7 15 7 9 5 11 12 13 14 28 17 18 36 36 35 34 36 27 23 19 25 25 20 18 19 18 15 13
41 41 40 39 37 38 39 38 37 34 30 27 27 27 28 24 15 16 13 20 12 9 6 12 15 12 14 15 18 31 18 29 36 32 44 36 39 32 27 22 23 20 19 2 3 5 8
35 36 38 40 40 39 39 38 37 36 31 27 27 26 28 25 24 27 27 34 9 13 26 8 12 10 15 21 20 26 31 28 33 36 13 30 27 38 30 35 26 23 24 12 5 4 4
39 39 39 38 38 39 39 40 39 38 35 30 28 29 30 28 30 33 31 31 31 31 17 23 15 12 16 15 15 23 34 29 27 31 40 11 13 19 20 38 31 29 29 29 25 25 6
39 38 37 37 36 38 38 39 40 37 35 32 34 34 31 25 34 41 39 32 41 39 22 12 15 18 14 15 20 18 23 24 32 29 29 26 9 12 13 27 36 32 18 23 23 4 5
35 35 32 32 32 33 35 37 42 41 37 36 33 40 34 28 32 46 43 45 46 42 31 21 9 15 20 16 16 19 10 22 16 15 31 35 34 18 15 17 26 28 33 20 16 17 4
38 38 37 37 36 34 32 32 37 41 39 39 40 38 42 35 38 53 44 52 49 39 36 24 14 17 24 22 24 26 31 21 10 11 24 35 24 29 24 18 21 25 25 28 13 7 21
38 38 36 36 36 35 35 35 33 38 43 43 40 44 35 42 45 51 56 56 48 31 45 37 28 28 20 20 12 22 25 22 33 26 9 24 11 9 10 15 18 22 20 23 28 22 22
38 38 36 36 35 33 31 34 37 37 44 46 43 36 42 44 44 45 52 58 58 53 25 33 32 29 23 23 26 10 20 28 25 26 18 18 18 20 15 13 18 23 27 22 20 25 26
42 42 41 40 39 36 35 32 32 37 41 42 44 43 36 37 47 44 46 54 59 51 45 30 35 36 34 22 26 25 19 16 17 14 26 19 15 24 24 24 21 24 28 35 30 26 22
39 42 43 43 43 41 38 36 33 36 38 42 45 43 32 45 40 40 48 50 48 54 46 46 42 41 39 31 25 31 28 25 18 22 28 29 25 27 26 22 14 17 26 26 30 29 26
39 40 42 42 39 38 41 37 35 34 38 42 49 50 18 32 26 45 52 41 45 52 32 42 34 43 31 26 31 26 26 30 28 28 24 24 26 21 24 28 13 16 45 28 29 33 29
38 43 43 42 39 38 38 38 36 36 40 43 46 42 32 48 25 37 44 40 39 43 49 36 37 36 39 29 30 23 23 24 24 26 27 22 21 21 13 12 10 39 31 32 32 32 30
39 37 41 44 39 38 35 39 36 36 36 45 46 45 35 20 46 41 36 37 37 42 41 41 39 36 38 35 33 24 17 17 20 23 23 27 29 18 10 15 21 21 11 16 23 24 19
40 36 33 41 38 38 34 38 35 34 36 41 45 43 52 44 17 25 38 33 33 38 38 41 36 33 33 27 25 23 14 13 9 11 27 28 27 32 17 8 8 22 18 22 15 31 20
34 31 30 36 35 36 34 36 33 33 34 39 42 42 40 43 26 8 26 32 33 30 33 37 34 30 25 28 22 12 14 14 12 12 13 29 29 32 28 10 12 22 4 8 16 18 15
32 31 29 32 33 33 33 34 32 31 32 36 38 38 35 35 33 14 8 35 29 33 34 25 31 26 13 18 13 7 9 21 16 15 16 21 19 20 26 15 10 12 14 20 19 16 20
29 26 28 30 30 31 32 31 31 31 30 34 35 34 37 34 35 21 11 22 25 31 30 33 30 19 18 18 19 11 6 9 14 13 13 14 25 13 10 12 14 10 11 10 18 20 23

GFSGBSN_700_spd_150.txt.gz
Wind_Speed
45 43 40 41 39 36 35 35 35 36 36 37 38 38 37 37 36 36 35 34 34 33 33 35 34 35 33 34 26 28 27 24 21 19 17 16 13 15 16 18 19 10 15 22 18 16 17
49 49 48 45 43 39 37 37 38 36 38 39 39 39 39 38 38 37 37 37 36 35 35 35 37 36 36 39 27 29 24 21 17 19 15 16 16 18 17 19 17 16 18 20 18 18 19
52 50 52 52 51 48 42 44 41 38 41 41 40 41 40 39 40 40 39 39 38 35 34 36 38 39 41 34 31 32 32 25 20 20 16 17 19 19 20 17 22 21 22 21 24 18 18
54 54 53 54 53 52 51 46 49 42 47 43 44 43 43 41 41 41 41 40 39 36 36 37 39 40 47 33 34 33 30 28 25 20 19 17 22 20 21 20 19 24 24 28 27 25 24
48 49 49 50 51 52 40 44 46 45 49 49 47 46 42 43 44 45 43 41 41 39 38 39 38 38 40 27 17 15 14 14 19 21 20 17 25 21 17 22 22 23 21 21 21 22 24
43 46 47 47 45 44 47 48 40 39 33 39 40 46 47 41 39 40 41 38 42 40 40 41 40 37 31 24 24 20 17 16 17 17 20 21 24 23 24 24 27 27 21 22 20 14 22
41 41 42 43 45 45 45 45 52 48 45 43 42 31 31 28 35 42 45 44 41 40 44 43 40 37 26 27 31 28 26 14 15 18 24 24 23 29 26 25 24 22 17 16 11 9 20
42 40 40 39 40 41 42 43 46 49 48 49 47 48 50 44 41 30 35 39 37 41 49 54 56 57 50 44 48 35 29 25 21 22 23 25 30 22 21 19 23 22 20 23 19 13 16
41 41 40 39 38 38 38 39 40 42 43 40 43 48 50 51 44 36 26 24 18 30 36 55 51 54 44 42 50 46 37 33 27 24 29 33 30 12 24 22 22 20 22 20 20 11 12
38 39 40 40 40 38 36 34 34 36 36 35 31 33 34 36 46 48 44 38 37 20 21 33 25 32 28 33 48 41 37 34 31 28 24 30 32 25 18 23 21 22 19 17 16 13 14
35 32 34 37 40 40 39 36 34 32 31 30 28 24 23 22 31 29 29 23 28 16 4 9 4 9 10 14 18 17 28 39 37 31 28 28 9 23 26 21 15 26 22 16 19 20 20
33 34 32 33 32 34 35 36 35 31 30 29 27 23 21 25 24 15 11 7 11 7 9 5 8 9 8 11 14 10 16 43 38 33 33 33 25 16 15 19 18 22 25 20 18 18 14
36 35 36 36 34 31 29 31 33 33 29 28 26 22 22 23 15 16 18 20 21 11 8 12 20 17 14 15 15 20 17 44 36 31 39 37 41 34 25 25 22 17 23 4 4 4 8
46 42 38 34 35 36 34 31 29 31 32 31 27 24 24 24 19 27 25 31 14 20 30 15 14 13 16 18 20 21 26 20 40 34 12 23 22 37 37 39 29 27 27 15 7 4 4
34 32 32 31 30 30 31 33 33 31 32 31 31 30 30 23 22 35 33 22 23 25 24 32 17 20 21 19 23 20 26 37 32 37 27 10 12 14 21 34 27 24 33 29 19 9 3
31 31 31 31 31 31 31 32 31 34 33 33 30 34 33 23 24 41 33 27 29 35 13 13 20 20 24 22 18 16 18 22 37 31 32 25 25 23 9 15 27 42 33 18 12 5 6
32 30 31 28 28 28 28 30 30 30 35 33 32 36 35 30 29 37 39 48 47 41 27 16 17 18 31 20 15 22 15 24 12 19 32 28 26 17 21 14 14 29 29 21 17 16 3
38 35 32 31 31 31 28 27 27 27 30 36 35 35 40 32 41 42 53 53 52 50 32 28 19 24 28 25 10 11 22 21 24 14 14 27 20 34 38 31 17 25 37 35 16 9 27
43 41 36 36 37 34 32 30 28 26 25 29 38 39 43 36 46 47 46 53 56 55 44 28 26 21 25 25 18 17 19 22 22 20 7 12 11 16 9 23 26 28 32 29 29 25 18
34 34 36 38 36 35 33 31 29 29 27 27 34 33 42 47 35 44 49 49 57 56 51 34 28 28 25 30 30 22 18 16 28 34 19 19 19 18 14 10 24 23 28 30 25 26 24
34 34 34 35 34 33 32 31 28 27 30 32 33 41 32 20 38 38 46 51 52 58 56 44 34 42 36 32 29 24 22 19 17 20 26 19 23 12 18 28 17 19 18 23 28 28 25
32 35 37 37 38 37 36 34 32 29 27 34 37 43 39 30 42 28 39 53 53 50 55 56 41 32 38 35 37 28 25 27 22 22 21 22 25 23 21 16 19 23 28 33 31 31 29
36 35 33 34 35 37 38 37 35 33 33 34 38 39 31 36 37 34 33 49 48 46 42 48 50 47 34 40 37 32 30 26 23 23 23 23 27 26 23 26 20 15 34 24 25 29 30
41 40 39 37 35 34 36 37 36 38 38 36 34 37 44 45 32 27 26 40 46 49 47 35 29 41 50 38 36 36 36 33 31 31 28 24 23 23 20 17 8 32 32 29 27 35 34
43 43 42 40 39 38 36 36 36 38 40 38 36 37 41 45 46 40 31 28 35 41 41 41 34 24 35 33 31 28 31 29 34 37 28 27 24 19 9 17 14 22 26 24 23 36 36
41 40 39 41 36 37 38 40 36 37 39 38 36 35 38 41 33 24 14 30 27 24 40 34 28 41 29 32 33 27 19 24 10 18 22 26 29 30 13 7 7 31 22 10 11 32 16
39 38 37 35 34 36 34 38 34 36 37 37 35 34 35 44 39 37 24 6 16 24 29 29 33 30 41 29 33 28 27 31 25 22 17 29 27 34 31 13 17 23 11 8 23 25 13
32 36 35 34 32 34 34 36 35 35 36 36 33 32 34 41 41 47 43 28 13 21 30 35 26 35 31 34 22 14 12 16 14 21 24 24 21 21 26 14 13 9 26 27 18 22 19
31 32 35 30 30 30 36 35 35 33 34 32 32 31 34 37 33 36 50 30 22 26 22 37 27 27 32 25 20 13 6 6 4 13 16 20 26 25 22 16 11 15 11 20 25 23 22

GFSGBSN_700_spd_153.txt.gz
Wind_Speed
45 42 40 43 38 39 37 37 36 34 35 36 37 38 38 38 38 38 38 37 36 36 36 36 37 37 35 37 28 27 30 27 24 21 19 19 16 16 16 16 23 22 19 18 15 18 19
50 48 46 45 45 46 41 37 41 38 37 35 37 37 37 38 39 39 39 39 39 38 37 38 40 38 39 42 27 29 27 23 19 22 20 19 17 17 19 18 21 20 20 17 19 24 24
52 50 50 49 48 49 48 44 43 40 40 39 37 39 37 39 39 40 40 41 40 38 39 40 40 41 44 38 31 32 30 30 25 25 22 18 19 19 21 18 20 24 25 21 21 23 25
52 51 50 49 50 50 50 50 51 47 43 41 43 42 41 38 41 42 42 42 41 40 39 40 41 43 52 34 31 30 30 29 29 28 24 19 20 23 22 21 17 18 25 30 28 22 25
48 47 47 48 48 48 49 49 51 54 51 51 45 45 42 43 40 43 42 44 42 41 40 40 41 43 51 35 28 23 15 10 13 19 24 21 24 27 23 22 23 27 25 25 31 28 29
43 44 44 44 45 45 46 46 46 47 41 37 45 42 48 46 45 45 44 44 42 38 42 42 42 40 37 28 27 22 12 10 13 17 18 24 25 27 26 26 26 27 23 28 29 22 19
42 41 42 43 43 42 43 44 46 44 43 42 37 44 34 32 37 26 32 45 43 41 41 44 43 46 34 31 27 24 23 25 20 18 21 26 29 34 29 28 27 28 15 22 23 13 16
42 42 42 40 40 40 40 40 41 43 44 46 46 47 47 39 38 36 32 35 31 37 45 48 53 53 46 38 41 31 21 24 31 29 22 27 36 28 29 22 25 28 28 29 26 17 19
38 41 42 42 40 39 38 36 37 38 40 40 39 42 47 39 42 45 44 43 31 28 33 54 51 58 53 49 56 54 43 44 41 36 32 36 36 22 29 26 26 29 28 27 22 15 16
41 41 40 41 41 41 40 39 37 35 35 36 36 33 28 28 35 38 41 39 43 36 30 43 32 39 35 37 52 51 42 45 47 46 33 33 34 36 27 22 28 31 27 20 19 20 23
38 36 37 37 37 39 40 39 38 36 33 31 31 28 21 23 26 26 22 21 22 26 4 11 11 13 12 18 20 7 15 36 51 43 34 35 29 28 37 33 24 23 23 18 21 22 21
40 36 32 32 34 34 34 35 36 38 36 33 30 27 20 14 18 19 19 5 11 6 9 9 11 9 10 12 15 13 11 26 41 43 36 39 34 23 17 23 26 12 21 22 25 23 17
42 39 37 33 32 32 30 29 30 32 33 34 30 25 20 21 27 25 18 15 20 12 9 17 27 27 21 17 19 17 16 26 31 35 38 35 40 34 25 20 24 18 15 7 6 6 10
43 40 38 36 33 31 33 33 31 29 28 30 31 25 25 24 22 25 25 33 14 23 31 9 12 17 22 19 18 18 18 25 43 29 15 31 22 40 35 38 28 26 23 12 7 5 5
39 41 40 38 41 40 36 32 33 32 29 28 32 30 32 26 23 25 32 24 18 29 19 25 19 16 23 23 21 18 28 28 30 45 28 16 20 20 22 38 39 29 31 30 17 10 4
36 37 36 39 36 33 31 29 28 28 31 32 30 32 36 28 28 29 33 31 32 42 23 14 29 23 26 27 27 26 21 23 38 33 44 24 19 23 23 20 29 40 34 17 12 7 6
31 32 31 28 28 28 28 27 27 28 28 30 32 31 32 31 32 33 41 37 47 47 26 17 15 19 28 26 23 28 25 25 19 28 38 40 20 11 21 26 25 26 35 16 21 9 3
33 33 32 32 31 28 27 25 25 24 24 28 32 34 37 29 39 38 46 56 51 46 36 26 24 18 20 25 22 23 31 29 16 17 26 33 15 18 31 18 21 17 19 36 13 8 18
37 37 36 34 34 33 31 29 27 25 25 24 31 37 34 29 40 44 36 48 52 54 42 30 28 28 23 25 15 27 29 27 22 18 13 10 14 7 7 17 21 33 36 20 35 18 19
41 41 39 37 36 37 36 34 31 28 28 27 27 31 40 37 34 42 39 47 51 53 52 34 39 33 24 25 20 11 24 17 18 24 26 18 13 14 12 3 5 16 25 31 28 18 16
33 35 40 38 37 41 42 37 33 31 30 32 33 33 31 18 47 44 49 30 42 55 44 39 46 45 35 32 26 26 27 27 29 14 26 26 21 17 18 21 20 23 15 12 32 37 20
36 34 32 33 33 33 33 34 31 30 30 33 37 37 35 42 26 25 25 46 45 53 46 38 39 45 42 39 34 22 26 24 24 17 18 20 22 26 34 23 15 23 30 27 20 22 29
33 34 34 33 33 34 34 33 32 32 33 34 32 34 37 37 41 28 25 26 31 40 43 49 42 41 43 49 37 35 26 23 22 19 16 19 19 15 20 25 20 11 33 28 33 31 29
40 37 35 34 32 32 34 36 36 35 37 36 33 31 33 37 39 47 39 27 30 33 37 36 40 39 42 37 42 37 28 28 31 28 33 24 24 23 15 9 6 29 28 20 30 30 31
44 42 40 38 36 35 33 33 36 38 39 40 37 37 36 37 35 37 43 42 32 27 24 35 39 42 27 28 32 30 43 30 35 37 35 36 29 25 12 14 20 29 24 23 26 29 32
42 45 45 43 40 38 36 35 34 36 38 40 39 37 37 37 39 34 34 36 34 34 26 25 30 36 40 23 36 27 16 27 14 16 25 35 33 29 11 7 7 23 13 24 15 27 26
40 39 40 43 44 42 39 37 38 39 37 41 40 37 38 40 37 33 37 27 22 17 18 22 25 32 29 35 23 30 26 26 23 26 21 30 36 36 27 14 17 32 14 11 18 22 6
41 36 36 37 37 37 37 37 35 39 42 42 38 36 38 39 36 34 33 41 35 27 16 9 14 25 27 32 30 8 13 11 24 29 30 28 19 21 25 18 14 26 18 28 25 23 22
38 35 32 34 35 35 34 34 32 36 42 38 37 32 32 34 35 31 34 38 45 35 29 16 11 11 27 22 24 17 18 16 8 6 29 31 40 30 27 25 18 19 17 22 28 25 18

GFSGBSN_700_spd_156.txt.gz
Wind_Speed
44 43 43 42 40 39 38 35 33 34 34 34 34 34 35 35 36 36 36 37 38 38 38 39 39 40 38 39 31 27 32 29 27 24 21 20 19 19 16 18 21 23 25 24 19 20 17
48 49 47 44 46 46 42 42 40 38 38 38 38 36 36 35 35 35 36 37 38 39 39 40 41 41 42 46 31 26 27 23 20 23 22 22 22 20 20 19 21 20 26 26 22 22 21
54 53 53 52 50 48 48 45 44 44 44 40 39 42 41 35 36 35 36 37 37 38 39 40 41 42 47 44 34 34 32 30 28 29 27 22 22 20 22 20 21 22 26 25 23 24 25
49 49 48 47 47 47 47 49 48 45 47 47 45 43 42 43 39 38 37 40 39 39 39 39 42 43 53 39 35 33 33 29 27 28 29 24 23 23 25 22 22 18 24 30 32 23 27
45 45 46 46 46 47 48 47 46 46 46 47 51 51 50 43 42 42 44 45 43 43 41 41 43 43 51 35 27 24 28 20 15 12 13 22 26 26 26 23 25 25 30 27 28 28 28
45 44 45 45 45 46 46 44 45 44 43 44 39 37 40 44 49 43 45 44 44 49 48 41 42 41 41 29 26 18 20 19 19 18 14 16 25 26 27 28 30 24 27 28 32 27 21
42 43 43 44 44 44 43 43 42 41 41 42 42 41 42 33 28 31 29 30 39 43 46 45 43 46 39 33 30 23 17 19 20 21 22 24 27 29 23 30 31 30 25 20 23 25 25
41 43 43 42 41 41 41 41 41 41 40 39 40 40 40 45 41 38 34 32 34 36 42 45 49 52 51 44 44 31 30 33 35 28 21 26 36 28 24 29 28 28 32 35 33 27 27
30 32 36 40 41 41 40 38 38 38 40 37 37 36 36 39 42 44 42 38 38 42 41 52 41 45 47 46 54 50 36 34 34 34 32 36 37 23 25 26 32 34 34 34 34 27 27
38 35 34 35 36 37 38 37 38 37 37 37 36 35 33 33 34 33 32 30 39 40 28 47 32 41 33 33 47 44 37 48 51 49 38 36 40 37 33 30 25 37 33 32 31 26 23
36 38 40 41 38 37 38 40 38 38 37 35 32 31 30 30 30 26 23 20 13 16 4 16 14 16 16 15 17 10 11 35 54 55 40 48 37 28 35 39 31 30 20 30 27 28 30
39 40 39 42 38 35 35 35 35 35 36 36 32 29 29 26 22 21 15 10 9 4 10 12 18 11 12 13 14 13 12 16 24 34 40 44 42 23 23 20 24 36 27 21 19 24 17
37 38 35 39 37 33 31 31 31 30 30 31 31 32 30 22 16 15 17 11 13 10 7 12 25 22 20 17 19 19 18 18 16 18 37 35 37 35 30 22 19 19 27 5 6 6 10
41 39 38 33 33 35 34 30 30 27 26 26 27 30 28 24 22 24 20 26 13 16 32 9 3 12 18 28 27 20 19 22 20 20 8 29 24 39 35 40 25 25 32 13 7 5 4
41 43 36 35 32 31 30 31 30 27 28 29 27 29 31 29 28 29 31 27 22 34 17 24 32 19 16 20 25 16 20 26 26 25 24 17 24 28 21 34 40 33 30 33 13 9 3
34 40 34 31 31 33 30 30 29 27 30 31 31 30 30 28 30 30 30 37 38 43 29 12 14 12 21 29 27 27 22 13 26 28 31 27 18 19 23 28 33 43 31 16 14 6 7
30 31 36 36 34 29 27 26 27 28 28 26 29 32 30 29 33 35 43 25 43 41 28 23 17 16 19 27 27 27 28 31 21 24 26 33 30 19 23 24 30 27 35 18 18 10 4
31 31 30 30 33 30 24 24 24 25 25 26 29 32 33 28 37 37 40 45 43 48 24 27 24 22 19 13 21 30 32 29 17 20 26 29 20 18 20 11 12 26 32 30 15 7 8
34 34 33 33 33 35 33 30 27 25 25 24 28 30 34 31 36 37 44 36 49 51 28 18 27 27 25 17 7 24 27 24 29 18 6 13 14 4 7 21 22 23 20 18 20 10 13
35 37 37 37 36 35 36 34 31 29 28 28 28 29 34 36 34 40 38 46 44 43 42 40 31 30 28 30 22 12 16 18 25 19 19 19 10 10 4 1 2 15 28 27 23 13 11
40 39 37 39 39 39 38 37 34 32 31 30 31 32 32 17 44 43 22 37 38 37 42 27 30 38 36 33 31 27 23 21 19 22 14 15 24 25 22 12 9 13 15 15 23 31 19
34 35 36 34 33 41 40 39 37 35 33 32 35 36 35 32 20 31 47 43 32 39 30 24 28 41 34 39 43 29 18 16 16 28 20 27 23 20 28 23 25 26 23 18 22 23 31
36 34 35 35 33 32 39 39 42 41 36 38 39 37 36 35 34 31 28 32 26 25 27 35 40 39 32 43 36 37 42 37 29 16 16 22 18 19 13 15 20 16 34 28 28 30 36
43 41 37 34 36 34 34 36 34 35 40 39 36 36 35 37 35 35 37 38 32 22 22 18 20 32 36 33 33 35 35 36 37 43 23 22 21 15 7 8 7 19 18 13 16 18 27
41 41 41 37 34 37 36 36 35 34 35 35 35 35 34 36 32 30 29 32 41 43 37 27 25 23 27 26 30 32 36 36 44 43 50 28 29 17 9 15 20 24 20 16 21 25 23
43 41 40 42 37 36 36 35 35 37 38 38 37 34 35 35 40 32 31 30 30 35 40 43 30 29 25 27 29 18 14 21 11 21 29 24 29 31 19 8 5 25 22 15 7 23 18
45 41 40 40 43 41 40 38 36 34 36 39 38 37 37 40 40 34 33 33 28 26 25 24 33 30 30 33 23 19 27 24 18 21 20 18 24 31 30 17 20 26 17 9 14 28 20
44 43 40 38 40 43 41 38 36 36 34 36 36 35 36 39 38 34 32 33 30 26 29 29 18 22 23 34 30 22 10 20 27 25 22 24 19 24 23 18 16 36 22 28 27 17 21
37 41 40 37 35 37 41 41 38 36 36 35 41 38 36 37 37 32 33 32 32 28 30 40 35 30 10 13 21 16 20 14 7 5 20 17 31 18 22 27 20 19 16 15 20 20 21